Location: Biltmore Gardens
(41.6070°N, 83.4666°W)
Time: 12:52:57
(UTC+00:00)

Cosmos 540 Rocket - Pass Details

Date: 14 July 2020
Orbit: 740 x 753 km, 74.1° (Epoch: 05 August)

Event Time Altitude Azimuth Distance (km) Brightness Sun altitude
Rises 09:31:33 0° 337° (NNW) 3,198 6.9 -7.2°
Reaches altitude 10° 09:33:56 10° 334° (NNW) 2,272 6.1 -6.8°
Maximum altitude 09:39:00 63° 255° (WSW) 838 3.5 -6.1°
Drops below altitude 10° 09:44:04 10° 175° (S) 2,264 5.7 -5.3°
Sets 09:46:26 0° 172° (S) 3,186 6.4 -4.9°
